Date,TemperatureHighF,TemperatureAvgF,TemperatureLowF,DewpointHighF,DewpointAvgF,DewpointLowF,HumidityHigh,HumidityAvg,HumidityLow,PressureMaxIn,PressureMinIn,WindSpeedMaxMPH,WindSpeedAvgMPH,GustSpeedMaxMPH,PrecipitationSumIn
2013-4-1,46.2,38.3,31.8,37.2,20.3,11.1,80,50,31,30.06,29.71,8,5,18,0.00
2013-4-2,41.5,32.4,23.0,16.9,11.9,6.6,59,43,32,30.21,30.06,8,4,17,0.00
2013-4-3,39.6,31.2,21.4,17.6,11.6,5.4,63,44,35,30.41,30.18,8,3,17,0.00
2013-4-4,54.1,36.3,19.0,19.0,13.0,7.0,67,41,23,30.39,29.97,5,2,11,0.00
2013-4-5,50.2,38.4,28.2,28.8,18.9,10.9,56,45,36,30.21,29.94,7,3,15,0.00
2013-4-6,56.7,41.5,22.6,21.2,16.8,12.0,68,40,24,30.27,29.94,6,3,12,0.00
2013-4-7,72.9,59.5,45.3,41.2,31.3,18.0,59,35,25,30.03,29.82,10,5,21,0.00
2013-4-8,71.2,55.8,35.6,47.8,38.9,30.2,84,55,35,30.06,29.85,8,4,19,0.00
2013-4-9,78.6,65.1,46.4,51.8,44.7,38.3,77,49,34,30.12,29.91,8,4,16,0.00
2013-4-10,74.5,62.0,48.0,62.4,51.3,43.9,96,70,44,29.97,29.82,8,2,24,0.72
2013-4-11,53.2,49.2,45.1,52.0,47.6,45.1,100,94,82,29.94,29.62,8,2,12,0.20
2013-4-12,57.2,46.3,39.2,56.3,41.6,31.1,97,84,61,29.88,29.50,9,4,17,0.36
2013-4-13,44.6,40.3,33.6,33.8,29.4,24.3,77,65,50,30.03,29.85,8,5,17,0.00
2013-4-14,58.1,44.8,28.9,34.0,28.5,21.9,86,55,37,30.15,30.00,6,2,12,0.00
2013-4-15,69.8,58.9,42.6,45.9,40.2,31.3,74,51,37,30.06,29.94,8,4,16,0.00
2013-4-16,71.2,59.2,49.6,57.2,49.9,45.0,94,72,56,30.21,30.00,7,4,15,0.16
2013-4-17,66.7,61.6,48.7,50.9,41.4,36.5,96,51,34,30.24,30.09,5,2,9,0.00
2013-4-18,83.5,71.0,59.0,56.1,52.2,45.7,83,55,30,30.09,29.74,10,5,22,0.00
2013-4-19,71.4,53.8,39.4,56.3,37.6,23.7,87,55,41,29.88,29.50,10,6,20,0.00
2013-4-20,39.4,37.2,35.1,29.1,26.8,24.1,77,66,54,29.91,29.88,8,5,17,0.00
2013-4-21,50.0,43.8,26.2,29.3,22.2,19.8,87,44,32,30.59,30.44,6,2,11,0.00
2013-4-22,63.9,49.5,28.9,34.3,27.9,20.5,81,46,31,30.44,30.21,6,3,12,0.00
2013-4-23,72.0,58.8,43.2,39.2,31.2,22.1,51,36,27,30.24,29.94,7,4,16,0.00
2013-4-24,61.7,48.2,34.5,53.1,41.5,32.4,93,80,38,30.18,29.76,7,3,17,0.64
2013-4-25,55.4,41.4,31.3,39.6,31.7,26.8,96,72,37,30.36,30.18,8,2,19,0.04
2013-4-26,59.4,45.3,29.1,43.5,28.3,23.9,96,58,29,30.47,30.36,5,1,11,0.00
2013-4-27,70.5,54.2,33.6,42.3,30.9,27.3,89,47,23,30.39,30.15,6,2,12,0.00
2013-4-28,56.7,52.9,45.7,54.9,46.1,32.4,95,79,48,30.12,29.91,5,2,12,0.44
2013-4-29,67.8,61.9,52.5,60.3,51.3,47.1,96,70,49,30.00,29.94,4,1,11,0.04
2013-4-30,74.5,61.5,47.1,59.5,48.1,43.3,97,67,34,30.15,30.03,7,2,13,0.00